�������l�o���
Date,Time,MP-1(��Sv/h),MP-2(��Sv/h),MP-3(��Sv/h),MP-4(��Sv/h),MP-5(��Sv/h),MP-6(��Sv/h),MP-7(��Sv/h),MP-8(��Sv/h),����,����(m/s),���J
2019/08/22,00:00,0.737,1.012,0.718,1.274,0.923,0.421,0.727,0.689,�쓌,3.5,�L
2019/08/22,00:10,0.735,1.005,0.717,1.268,0.917,0.420,0.728,0.687,-,CALM,�L
2019/08/22,00:20,0.730,1.001,0.714,1.267,0.911,0.421,0.725,0.688,-,CALM,�L
2019/08/22,00:30,0.732,1.005,0.714,1.267,0.914,0.423,0.726,0.687,��쐼,4.7,�L
2019/08/22,00:40,0.737,1.012,0.720,1.272,0.914,0.424,0.727,0.687,��,4.5,�L
2019/08/22,00:50,0.736,1.010,0.718,1.277,0.917,0.424,0.729,0.690,��,2.6,�L
2019/08/22,01:00,0.740,1.014,0.720,1.274,0.914,0.424,0.727,0.690,��,5.4,�L
2019/08/22,01:10,0.741,1.017,0.721,1.279,0.916,0.427,0.728,0.689,��,2.6,�L
2019/08/22,01:20,0.740,1.018,0.720,1.279,0.914,0.427,0.726,0.688,��쓌,3.7,�L
2019/08/22,01:30,0.742,1.019,0.722,1.282,0.920,0.426,0.728,0.689,��쓌,2.3,�L
2019/08/22,01:40,0.742,1.022,0.719,1.284,0.923,0.427,0.731,0.690,��쓌,3.2,�L
2019/08/22,01:50,0.740,1.020,0.718,1.287,0.922,0.427,0.730,0.690,��쓌,4.3,�L
2019/08/22,02:00,0.739,1.018,0.716,1.278,0.913,0.426,0.727,0.687,��쓌,5.4,�L
2019/08/22,02:10,0.735,1.016,0.717,1.277,0.915,0.426,0.727,0.688,��,3.1,�L
2019/08/22,02:20,0.736,1.017,0.717,1.280,0.918,0.426,0.730,0.688,��쓌,3.4,�L
2019/08/22,02:30,0.740,1.019,0.716,1.282,0.917,0.426,0.731,0.690,�쓌,3.0,�L
2019/08/22,02:40,0.738,1.018,0.716,1.280,0.915,0.428,0.730,0.689,�쓌,2.6,�L
2019/08/22,02:50,0.739,1.019,0.717,1.282,0.919,0.426,0.729,0.688,�쓌,2.3,�L
2019/08/22,03:00,0.740,1.022,0.719,1.283,0.920,0.425,0.730,0.690,��쓌,1.7,�L
2019/08/22,03:10,0.738,1.019,0.717,1.280,0.920,0.426,0.731,0.690,��,1.1,��
2019/08/22,03:20,0.736,1.021,0.716,1.283,0.921,0.424,0.728,0.689,��,1.4,��
2019/08/22,03:30,0.737,1.022,0.717,1.283,0.920,0.423,0.730,0.689,��,1.5,��
2019/08/22,03:40,0.737,1.022,0.716,1.282,0.920,0.426,0.730,0.689,��쓌,2.6,��
2019/08/22,03:50,0.735,1.021,0.716,1.283,0.922,0.424,0.731,0.690,�쓌,0.9,�L
2019/08/22,04:00,0.735,1.023,0.716,1.286,0.920,0.424,0.731,0.689,���쓌,1.1,��
2019/08/22,04:10,0.736,1.020,0.717,1.286,0.919,0.422,0.730,0.690,�쓌,0.8,��
2019/08/22,04:20,0.736,1.022,0.717,1.287,0.922,0.424,0.730,0.689,-,CALM,��
2019/08/22,04:30,0.737,1.023,0.718,1.283,0.920,0.423,0.729,0.690,�k��,0.9,��
2019/08/22,04:40,0.737,1.022,0.717,1.287,0.922,0.426,0.733,0.690,-,CALM,��
2019/08/22,04:50,0.736,1.022,0.716,1.284,0.923,0.423,0.732,0.691,-,CALM,��
2019/08/22,05:00,0.737,1.022,0.715,1.287,0.923,0.423,0.731,0.690,-,CALM,��
2019/08/22,05:10,0.738,1.023,0.717,1.284,0.924,0.423,0.732,0.690,-,CALM,��
2019/08/22,05:20,0.736,1.024,0.716,1.284,0.925,0.422,0.731,0.689,-,CALM,��
2019/08/22,05:30,0.737,1.026,0.717,1.284,0.923,0.423,0.734,0.691,-,CALM,��
2019/08/22,05:40,0.738,1.025,0.717,1.285,0.927,0.424,0.732,0.691,��쓌,0.6,��
2019/08/22,05:50,0.736,1.024,0.717,1.285,0.926,0.423,0.732,0.692,���k��,1.2,�L
2019/08/22,06:00,0.737,1.027,0.718,1.287,0.925,0.423,0.731,0.691,��,0.8,�L
2019/08/22,06:10,0.739,1.026,0.719,1.287,0.929,0.422,0.732,0.691,�k�k��,1.1,�L
2019/08/22,06:20,0.737,1.026,0.718,1.287,0.928,0.424,0.730,0.692,�k��,2.8,�L
2019/08/22,06:30,0.736,1.025,0.718,1.288,0.929,0.424,0.731,0.690,-,CALM,��
2019/08/22,06:40,0.738,1.026,0.719,1.288,0.930,0.423,0.731,0.691,��쓌,1.1,��
2019/08/22,06:50,0.737,1.027,0.719,1.287,0.929,0.425,0.732,0.691,��,0.6,��
2019/08/22,07:00,0.738,1.027,0.717,1.285,0.929,0.423,0.732,0.689,-,CALM,��
2019/08/22,07:10,0.738,1.029,0.718,1.288,0.927,0.423,0.733,0.690,-,CALM,��
2019/08/22,07:20,0.738,1.026,0.716,1.288,0.927,0.422,0.732,0.691,�k�k��,0.6,��
2019/08/22,07:30,0.738,1.025,0.715,1.287,0.929,0.421,0.732,0.691,��,0.6,��
2019/08/22,07:40,0.740,1.027,0.718,1.286,0.931,0.421,0.733,0.691,���쓌,0.9,��
2019/08/22,07:50,0.738,1.028,0.714,1.287,0.929,0.422,0.731,0.690,��쓌,0.8,��
2019/08/22,08:00,0.739,1.027,0.717,1.288,0.927,0.421,0.731,0.691,-,CALM,��
2019/08/22,08:10,0.736,1.024,0.718,1.286,0.929,0.420,0.732,0.692,�k,0.9,��
2019/08/22,08:20,0.737,1.024,0.718,1.288,0.929,0.422,0.732,0.692,���k��,0.6,��
2019/08/22,08:30,0.739,1.026,0.715,1.288,0.929,0.421,0.731,0.693,�k�k��,1.1,�L
2019/08/22,08:40,0.738,1.026,0.716,1.289,0.930,0.422,0.729,0.692,���k��,0.6,�L
2019/08/22,08:50,0.737,1.021,0.711,1.290,0.929,0.422,0.731,0.689,���쓌,4.2,�L
2019/08/22,09:00,0.738,1.028,0.717,1.289,0.932,0.421,0.732,0.691,�쓌,3.0,�L
2019/08/22,09:10,0.740,1.027,0.718,1.287,0.930,0.421,0.732,0.691,��쓌,2.5,��
2019/08/22,09:20,0.740,1.026,0.718,1.290,0.931,0.421,0.731,0.692,��,2.3,��
2019/08/22,09:30,0.740,1.026,0.718,1.291,0.932,0.421,0.734,0.690,��쐼,2.0,��
2019/08/22,09:40,0.741,1.026,0.717,1.288,0.934,0.421,0.733,0.690,��쐼,2.5,��
2019/08/22,09:50,0.742,1.027,0.718,1.289,0.933,0.422,0.733,0.692,�쐼,2.3,��
2019/08/22,10:00,0.741,1.028,0.715,1.288,0.933,0.421,0.735,0.690,��쐼,2.6,��
2019/08/22,10:10,0.743,1.030,0.717,1.291,0.938,0.422,0.733,0.691,��쐼,2.8,��
2019/08/22,10:20,0.740,1.030,0.717,1.290,0.934,0.422,0.734,0.691,��쐼,2.9,��
2019/08/22,10:30,0.742,1.028,0.716,1.291,0.937,0.421,0.733,0.691,��쓌,2.2,��
2019/08/22,10:40,0.741,1.034,0.717,1.290,0.935,0.421,0.736,0.693,��쓌,3.2,��
2019/08/22,10:50,0.743,1.030,0.718,1.293,0.937,0.423,0.736,0.693,�쓌,3.2,��
2019/08/22,11:00,0.743,1.033,0.719,1.291,0.937,0.422,0.736,0.690,��쓌,3.1,��
2019/08/22,11:10,0.743,1.035,0.722,1.292,0.938,0.424,0.736,0.694,��쓌,3.2,��
2019/08/22,11:20,0.743,1.031,0.720,1.292,0.937,0.423,0.736,0.692,�쓌,2.6,��
2019/08/22,11:30,0.743,1.032,0.719,1.292,0.938,0.424,0.736,0.694,�쓌,4.3,�L
2019/08/22,11:40,0.743,1.033,0.720,1.289,0.940,0.422,0.737,0.693,�쓌,5.0,�L
2019/08/22,11:50,0.744,1.033,0.719,1.290,0.936,0.424,0.734,0.693,��쓌,4.7,�L
2019/08/22,12:00,0.744,1.037,0.722,1.291,0.939,0.423,0.736,0.693,��쓌,4.7,�L
2019/08/22,12:10,0.745,1.038,0.721,1.291,0.938,0.424,0.736,0.692,��쓌,5.3,�L
2019/08/22,12:20,0.745,1.035,0.721,1.291,0.939,0.422,0.737,0.692,��쓌,5.3,�L
2019/08/22,12:30,0.746,1.037,0.721,1.291,0.941,0.423,0.736,0.693,��쓌,4.7,��
2019/08/22,12:40,0.743,1.037,0.720,1.294,0.941,0.423,0.736,0.692,��쓌,4.7,��
2019/08/22,12:50,0.746,1.039,0.721,1.298,0.941,0.423,0.736,0.693,��쓌,5.1,��
2019/08/22,13:00,0.745,1.040,0.722,1.296,0.940,0.421,0.736,0.693,��쓌,4.7,��
2019/08/22,13:10,0.746,1.037,0.721,1.296,0.940,0.422,0.735,0.693,��쓌,5.2,��
2019/08/22,13:20,0.747,1.033,0.722,1.297,0.942,0.423,0.737,0.693,��쓌,4.5,��
2019/08/22,13:30,0.747,1.035,0.724,1.297,0.943,0.422,0.736,0.694,��쓌,3.7,��
2019/08/22,13:40,0.746,1.034,0.725,1.296,0.941,0.422,0.737,0.694,�쓌,3.5,��
2019/08/22,13:50,0.749,1.036,0.722,1.297,0.941,0.422,0.738,0.695,��쓌,2.6,��
2019/08/22,14:00,0.746,1.038,0.724,1.299,0.943,0.423,0.735,0.694,���쓌,2.0,��
2019/08/22,14:10,0.747,1.036,0.725,1.297,0.941,0.423,0.737,0.693,��쓌,3.3,��
2019/08/22,14:20,0.747,1.038,0.721,1.300,0.941,0.423,0.735,0.692,�쓌,3.4,��
2019/08/22,14:30,0.748,1.038,0.725,1.298,0.942,0.423,0.735,0.694,�쓌,3.7,��
2019/08/22,14:40,0.747,1.038,0.724,1.298,0.944,0.424,0.736,0.694,��쓌,2.6,��
2019/08/22,14:50,0.747,1.037,0.722,1.298,0.942,0.425,0.736,0.692,��,2.0,��
2019/08/22,15:00,0.749,1.037,0.724,1.299,0.942,0.424,0.736,0.693,�쓌,2.0,��
2019/08/22,15:10,0.748,1.038,0.725,1.300,0.944,0.424,0.736,0.693,��쓌,2.5,��
2019/08/22,15:20,0.749,1.040,0.725,1.299,0.945,0.424,0.736,0.692,��쓌,3.0,��
2019/08/22,15:30,0.747,1.039,0.724,1.298,0.943,0.423,0.736,0.695,��쓌,2.6,��
2019/08/22,15:40,0.749,1.043,0.724,1.301,0.944,0.425,0.737,0.694,��쓌,2.2,��
2019/08/22,15:50,0.747,1.040,0.725,1.298,0.943,0.425,0.737,0.695,��쓌,1.9,��
2019/08/22,16:00,0.747,1.042,0.722,1.300,0.944,0.424,0.738,0.696,��,2.3,�L
2019/08/22,16:10,0.748,1.043,0.724,1.299,0.945,0.426,0.738,0.695,��,2.6,�L
2019/08/22,16:20,0.747,1.044,0.725,1.297,0.945,0.424,0.738,0.696,��쓌,2.3,�L
2019/08/22,16:30,0.745,1.043,0.725,1.298,0.947,0.424,0.740,0.696,��쓌,3.0,�L
2019/08/22,16:40,0.748,1.042,0.725,1.301,0.948,0.425,0.738,0.697,��쓌,2.9,�L
2019/08/22,16:50,0.748,1.043,0.727,1.300,0.948,0.425,0.739,0.697,��쓌,2.2,�L
2019/08/22,17:00,0.747,1.044,0.727,1.299,0.948,0.424,0.738,0.696,��,3.0,�L
2019/08/22,17:10,0.747,1.043,0.727,1.298,0.948,0.425,0.739,0.697,��,3.3,�L
2019/08/22,17:20,0.748,1.043,0.727,1.297,0.949,0.425,0.739,0.698,��쐼,3.4,�L
2019/08/22,17:30,0.747,1.044,0.726,1.299,0.947,0.425,0.738,0.698,��,3.0,�L
2019/08/22,17:40,0.750,1.047,0.727,1.299,0.947,0.425,0.739,0.697,��,4.1,�L
2019/08/22,17:50,0.747,1.043,0.726,1.299,0.947,0.425,0.739,0.697,��,4.8,�L
2019/08/22,18:00,0.747,1.044,0.727,1.301,0.947,0.425,0.737,0.697,��,4.4,�L
2019/08/22,18:10,0.747,1.043,0.727,1.299,0.947,0.424,0.740,0.696,��쓌,3.1,��
2019/08/22,18:20,0.748,1.043,0.727,1.299,0.947,0.425,0.738,0.697,��,2.9,�L
2019/08/22,18:30,0.747,1.042,0.729,1.299,0.946,0.426,0.739,0.696,��,3.7,�L
2019/08/22,18:40,0.747,1.042,0.726,1.299,0.948,0.428,0.739,0.697,��쓌,4.5,�L
2019/08/22,18:50,0.748,1.043,0.728,1.302,0.948,0.426,0.738,0.698,��쓌,5.6,�L
2019/08/22,19:00,0.745,1.042,0.727,1.299,0.946,0.424,0.739,0.699,��,5.1,��
2019/08/22,19:10,0.748,1.045,0.726,1.299,0.946,0.426,0.737,0.697,��쓌,4.5,��
2019/08/22,19:20,0.746,1.042,0.728,1.298,0.947,0.427,0.739,0.696,��쓌,4.1,�L
2019/08/22,19:30,0.745,1.043,0.729,1.299,0.946,0.425,0.739,0.697,��쓌,5.8,�L
2019/08/22,19:40,0.745,1.042,0.727,1.300,0.948,0.427,0.739,0.697,��쓌,6.6,�L
2019/08/22,19:50,0.747,1.044,0.727,1.300,0.948,0.426,0.739,0.697,��쓌,7.0,�L
2019/08/22,20:00,0.746,1.042,0.728,1.299,0.946,0.425,0.740,0.698,��쓌,6.3,�L
2019/08/22,20:10,0.745,1.042,0.727,1.299,0.946,0.424,0.739,0.697,��,4.7,��
2019/08/22,20:20,0.744,1.042,0.728,1.301,0.948,0.424,0.739,0.696,��,3.4,��
2019/08/22,20:30,0.746,1.044,0.726,1.299,0.947,0.425,0.738,0.696,��,2.3,��
2019/08/22,20:40,0.747,1.043,0.729,1.302,0.947,0.425,0.739,0.698,��,2.6,��
2019/08/22,20:50,0.746,1.045,0.727,1.301,0.947,0.427,0.740,0.698,��,3.4,��
2019/08/22,21:00,0.747,1.042,0.729,1.302,0.947,0.425,0.740,0.698,��,4.2,��
2019/08/22,21:10,0.746,1.042,0.728,1.300,0.949,0.424,0.738,0.698,��,4.4,��
2019/08/22,21:20,0.747,1.044,0.727,1.302,0.949,0.427,0.739,0.696,��쓌,4.2,��
2019/08/22,21:30,0.748,1.044,0.727,1.301,0.946,0.426,0.739,0.696,��,5.7,��
2019/08/22,21:40,0.746,1.044,0.729,1.297,0.948,0.426,0.738,0.697,��,5.0,��
2019/08/22,21:50,0.746,1.045,0.727,1.300,0.948,0.426,0.739,0.697,��,5.0,��
2019/08/22,22:00,0.747,1.043,0.730,1.300,0.948,0.427,0.739,0.696,��,4.9,��
2019/08/22,22:10,0.746,1.042,0.729,1.301,0.949,0.428,0.738,0.698,��,5.3,��
2019/08/22,22:20,0.747,1.044,0.728,1.302,0.948,0.427,0.739,0.698,��쐼,6.0,��
2019/08/22,22:30,0.749,1.043,0.727,1.300,0.947,0.428,0.739,0.698,��쐼,5.5,��
2019/08/22,22:40,0.746,1.042,0.729,1.299,0.949,0.427,0.740,0.699,��쐼,4.4,�L
2019/08/22,22:50,0.748,1.044,0.731,1.302,0.948,0.424,0.739,0.698,��쐼,3.9,��
2019/08/22,23:00,0.748,1.045,0.728,1.301,0.948,0.426,0.739,0.699,��쐼,4.3,��
2019/08/22,23:10,0.747,1.046,0.728,1.301,0.947,0.427,0.740,0.697,�쐼,4.7,�L
2019/08/22,23:20,0.747,1.043,0.728,1.299,0.947,0.425,0.738,0.697,��쐼,4.6,�L
2019/08/22,23:30,0.746,1.044,0.727,1.303,0.948,0.429,0.739,0.698,��쐼,4.7,�L
2019/08/22,23:40,0.747,1.044,0.728,1.300,0.947,0.426,0.739,0.699,�쐼,4.9,�L
2019/08/22,23:50,0.747,1.043,0.728,1.300,0.949,0.426,0.741,0.698,�쐼,3.8,��
